This demonstration page uses our WeatherBlox Daily Observations layout. Learn more.

Left ArrowRight Arrow

36.17497, -115.13722

Hourly Observations for October 5, 2022

Temp ( °F °C ) Dew Point ( °F °C ) Humidity (%) Winds ( mph kmh ) Pressure ( in mb ) Visibility ( mi km ) Precip ( " mm )
12:53 am 00:53 Clear 75 23.9 42 5.6 31 31 NNW 3 6 29.96 1015 10 16 0.00 0.00
1:53 am 01:53 Clear 73 22.8 39 3.9 29 29 Calm 29.98 1015 10 16 0.00 0.00
2:53 am 02:53 Clear 73 22.8 44 6.7 35 35 W 5 7 29.97 1015 10 16 0.00 0.00
3:53 am 03:53 Clear 71 21.7 45 7.2 39 39 Calm 29.98 1015 10 16 0.00 0.00
4:53 am 04:53 Clear 71 21.7 44 6.7 38 38 WSW 3 6 29.98 1015 10 16 0.00 0.00
5:53 am 05:53 Clear 70 21.1 43 6.1 38 38 W 3 6 30.00 1016 10 16 0.00 0.00
6:53 am 06:53 Sunny 69 20.6 43 6.1 39 39 NNW 5 7 30.02 1017 10 16 0.00 0.00
7:53 am 07:53 Sunny 73 22.8 42 5.6 33 33 NNW 5 7 30.04 1017 10 16 0.00 0.00
8:53 am 08:53 Sunny 80 26.7 42 5.6 26 26 Calm 30.05 1018 10 16 0.00 0.00
9:53 am 09:53 Sunny 82 27.8 41 5 23 23 SSE 5 7 30.06 1018 10 16 0.00 0.00
10:53 am 10:53 Sunny 85 29.4 41 5 21 21 ESE 6 9 30.05 1018 10 16 0.00 0.00
11:53 am 11:53 Sunny 87 30.6 37 2.8 17 17 Calm 30.04 1017 10 16 0.00 0.00
12:53 pm 12:53 Sunny 90 32.2 34 1.1 14 14 VRB 7 11 30.01 1016 10 16 0.00 0.00
1:53 pm 13:53 Sunny 90 32.2 35 1.7 14 14 SE 7 11 29.98 1015 10 16 0.00 0.00
2:53 pm 14:53 Sunny 91 32.8 35 1.7 14 14 Calm 29.96 1015 10 16 0.00 0.00
3:53 pm 15:53 Sunny 92 33.3 34 1.1 13 13 SSE 7 11 29.96 1014 10 16 0.00 0.00
4:53 pm 16:53 Sunny 93 33.9 35 1.7 13 13 NNE 3 6 29.95 1014 10 16 0.00 0.00
5:53 pm 17:53 Sunny 91 32.8 34 1.1 13 13 Calm 29.95 1014 10 16 0.00 0.00
6:53 pm 18:53 Clear 87 30.6 35 1.7 16 16 ESE 3 6 29.97 1015 10 16 0.00 0.00
7:53 pm 19:53 Clear 87 30.6 36 2.2 16 16 Calm 29.98 1015 10 16 0.00 0.00
8:53 pm 20:53 Clear 82 27.8 39 3.9 22 22 WNW 6 9 29.99 1016 10 16 0.00 0.00
9:53 pm 21:53 Clear 80 26.7 38 3.3 22 22 WNW 6 9 30.01 1016 10 16 0.00 0.00
10:53 pm 22:53 Clear 78 25.6 38 3.3 24 24 WNW 6 9 30.01 1016 10 16 0.00 0.00
11:53 pm 23:53 Clear 75 23.9 35 1.7 23 23 NW 7 11 30.01 1016 10 16 0.00 0.00

Powered by AerisWeather